Location: Godiavel Galaoual
(15.2485°N, 12.6604°W)
Time: 12:48:07
(UTC+00:00)

LightSail 2 - Pass Details

Date: 06 June 2020
Orbit: 692 x 720 km, 24.0° (Epoch: 14 July)

Event Time Altitude Azimuth Distance (km) Brightness Sun altitude
Rises 19:57:31 0° 222° (SW) 3,044 8.6 -9.1°
Reaches altitude 10° 20:00:17 10° 209° (SSW) 2,128 7.6 -9.7°
Maximum altitude 20:04:23 25° 154° (SSE) 1,368 6.2 -10.6°
Enters shadow 20:07:24 15° 108° (ESE) 1,827 6.6 -11.2°
